[[{"header":{"parameterUnit":"m.s-1","parameterCategory":1,"la1":30.2991,"la2":30.254,"lo1":-89.0895,"lo2":-89.0444,"dy":0.0017,"dx":0.0017,"nx":28,"ny":28,"refTime":"2024-10-03T09:00:00:Z","depth":0,"parameterNumber":2,"parameterNumberName":"U-component_of_WINDS"},"data":[0,0,0,0,0,0,0,0,0,0,0,0,0,0,0,0,0,0,0,0,0,0,0,0,0,0,0,0,0,0,0,0,0,0,0,0,0,0,0,0,0,0,0,0,0,0,0,0,0,0,0,0,0,0,0,0,0,0,-0.514,-0.5144,0,-0.5526,-0.5531,-0.5535,-0.573,-0.573,-0.573,-0.573,-0.613,-0.614,-0.6151,0,0,0,0,0,0,0,0,0,0,0,0,0,-0.4573,-0.4582,-0.5139,-0.5144,-0.5149,-0.5526,-0.5531,-0.5536,-0.573,-0.573,-0.573,-0.573,-0.6127,-0.6139,-0.6152,0,0,0,0,0,0,0,0,0,0,0,0,0,-0.4875,-0.4585,-0.5139,-0.5291,-0.5309,-0.5524,-0.5531,-0.5538,-0.573,-0.573,-0.573,-0.573,-0.6123,-0.6138,-0.6154,-0.6248,0,0,-0.6202,-0.6209,0,0,0,0,0,0,0,0,-0.4858,-0.4896,-0.5264,-0.5281,-0.5301,-0.558,-0.5478,-0.5776,-0.573,-0.557,-0.573,-0.573,-0.5947,-0.5977,-0.605,-0.6267,-0.6284,-0.6203,-0.6213,-0.622,-0.6224,0,0,0,0,0,0,0,-0.4837,-0.488,-0.5293,-0.5269,-0.5292,-0.5342,-0.5385,-0.5535,-0.5753,-0.5584,-0.5599,-0.5642,-0.5957,-0.6034,-0.6061,-0.629,-0.6203,-0.6217,-0.6227,-0.6233,-0.6606,-0.6606,0,0,0,0,0,0,-0.479,-0.4862,-0.528,-0.5304,-0.5075,-0.5351,-0.54,-0.549,-0.5752,-0.5792,-0.5641,-0.565,-0.6007,-0.6042,-0.6075,-0.6205,-0.622,-0.6234,-0.6244,-0.6605,-0.6606,-0.6606,0,0,0,0,0,0,-0.4778,-0.4826,-0.5265,-0.5087,-0.5147,-0.5361,-0.5461,-0.5498,-0.5575,-0.5795,-0.5836,-0.5679,-0.6008,-0.6053,-0.6204,-0.6221,-0.6242,-0.6256,-0.6605,-0.6606,-0.6606,-0.6463,0,0,0,0,0,0,-0.476,-0.482,-0.4857,-0.5086,-0.5155,-0.5385,-0.5462,-0.5505,-0.5601,-0.5615,-0.5842,-0.588,-0.6012,-0.6179,-0.622,-0.6244,-0.6268,-0.6604,-0.6605,-0.6606,-0.6467,-0.6458,-0.6451,0,0,0,0,0,-0.4739,-0.4803,-0.4858,-0.4908,-0.5206,-0.5386,-0.5426,-0.5576,-0.5601,-0.5642,-0.5784,-0.5872,-0.6212,-0.6193,-0.624,-0.6269,-0.6604,-0.6605,-0.6606,-0.6471,-0.646,-0.6451,0,0,0,0,0,0,-0.4572,-0.4835,-0.49,-0.5039,-0.5188,-0.5418,-0.5474,-0.556,-0.5706,-0.5713,-0.5894,-0.5944,-0.6078,-0.6189,-0.6163,-0.6375,-0.6417,-0.6427,-0.6298,-0.629,-0.6282,-0.6253,-0.6281,0,0,0,0,0,-0.455,-0.4673,-0.4897,-0.4998,-0.5069,-0.5257,-0.5341,-0.5444,-0.5607,-0.5671,-0.5824,-0.598,-0.6122,-0.6212,-0.6355,-0.6483,-0.6536,-0.6527,-0.6518,-0.6511,-0.6518,-0.6595,-0.6594,-0.6609,-0.6609,-0.6609,0,0,-0.4509,-0.4668,-0.4734,-0.4968,-0.5096,-0.522,-0.531,-0.5437,-0.5531,-0.5691,-0.5843,-0.596,-0.6146,-0.6285,-0.6355,-0.6382,-0.6525,-0.6512,-0.6504,-0.6517,-0.6596,-0.6595,-0.6593,-0.661,-0.661,-0.661,0,0,-0.4496,-0.4628,-0.4727,-0.4852,-0.5044,-0.5169,-0.5192,-0.5409,-0.5493,-0.5647,-0.577,-0.5885,-0.6126,-0.6254,-0.635,-0.6383,-0.6471,-0.6425,-0.6384,-0.6457,-0.6456,-0.6456,-0.6469,-0.6472,-0.6431,-0.6431,-0.6431,0,-0.4421,-0.4611,-0.4767,-0.4887,-0.4987,-0.5135,-0.5237,-0.5352,-0.5581,-0.5647,-0.5673,-0.5979,-0.6114,-0.6286,-0.6294,-0.6367,-0.6401,-0.6401,-0.6443,-0.6445,-0.6447,-0.6462,-0.6466,-0.6424,-0.6425,-0.6426,-0.6426,0,-0.4509,-0.4639,-0.4696,-0.4911,-0.5017,-0.5127,-0.5301,-0.539,-0.5483,-0.5605,-0.576,-0.5928,-0.6108,-0.6156,-0.6248,-0.6342,-0.6352,-0.6408,-0.6455,-0.6436,-0.6453,-0.646,-0.6414,-0.6417,-0.6419,-0.6421,0,0,-0.4404,-0.4702,-0.4721,-0.482,-0.5042,-0.5146,-0.5263,-0.5438,-0.5511,-0.5663,-0.5767,-0.5967,-0.602,-0.6129,-0.6237,-0.6301,-0.6318,-0.635,-0.6357,-0.6339,-0.6433,-0.639,-0.6394,-0.6377,-0.6378,-0.638,-0.6417,0,-0.4423,-0.4639,-0.4782,-0.4942,-0.5064,-0.5206,-0.5309,-0.5456,-0.5573,-0.5695,-0.5826,-0.5965,-0.6024,-0.6091,-0.616,-0.6301,-0.6339,-0.63,-0.6477,-0.6481,-0.6427,-0.6403,-0.6358,-0.6386,-0.6425,-0.6426,-0.6427,0,-0.4475,-0.4622,-0.4792,-0.5,-0.5057,-0.5146,-0.5318,-0.5432,-0.5603,-0.5684,-0.5804,-0.5914,-0.6045,-0.6078,-0.6262,-0.6232,-0.6313,-0.6392,-0.6397,-0.6421,-0.6454,-0.6427,-0.6398,-0.6402,-0.6439,-0.6438,-0.6437,0,-0.4382,-0.4622,-0.4756,-0.4837,-0.5082,-0.5142,-0.5247,-0.5418,-0.5513,-0.5663,-0.5727,-0.589,-0.598,-0.6105,-0.6256,-0.6266,-0.6425,-0.6471,-0.6497,-0.6493,-0.6526,-0.6522,-0.6511,-0.6575,-0.6575,-0.6574,-0.6574,0,-0.439,-0.4489,-0.4717,-0.4799,-0.4915,-0.5079,-0.519,-0.5308,-0.5458,-0.5567,-0.57,-0.5799,-0.5992,-0.6116,-0.6235,-0.637,-0.6409,-0.6479,-0.651,-0.6469,-0.6459,-0.6525,-0.6528,-0.6576,-0.6575,-0.6575,-0.6575,0,-0.4307,-0.4463,-0.4618,-0.4837,-0.4894,-0.497,-0.5159,-0.5245,-0.5368,-0.5504,-0.5545,-0.5739,-0.5892,-0.6054,-0.6262,-0.6342,-0.6472,-0.6515,-0.6414,-0.6431,-0.6449,-0.6446,-0.6481,-0.6495,-0.6546,-0.6545,-0.6545,0,-0.4302,-0.4382,-0.4608,-0.4689,-0.4791,-0.492,-0.5018,-0.5182,-0.5279,-0.5479,-0.5541,-0.5702,-0.5841,-0.6078,-0.6238,-0.6398,-0.6447,-0.6448,-0.6472,-0.6427,-0.6449,-0.6442,-0.6452,-0.644,-0.6439,-0.6438,-0.6437,0,-0.4277,-0.435,-0.4485,-0.4646,-0.4758,-0.4894,-0.5035,-0.5094,-0.5287,-0.5388,-0.5545,-0.5651,-0.5863,-0.6022,-0.6201,-0.6312,-0.6407,-0.6428,-0.6443,-0.6402,-0.6341,-0.6375,-0.6394,-0.6427,-0.6428,-0.6429,-0.6429,-0.643,-0.4235,-0.4312,-0.4483,-0.4629,-0.4751,-0.488,-0.4971,-0.5105,-0.5237,-0.5421,-0.551,-0.5666,-0.5836,-0.6086,-0.6194,-0.632,-0.6348,-0.6369,-0.6375,-0.6378,-0.6368,-0.6318,-0.6353,-0.6353,-0.6354,-0.6354,-0.6355,0,-0.4219,-0.4335,-0.4467,-0.4659,-0.4773,-0.485,-0.501,-0.5101,-0.5236,-0.5385,-0.5517,-0.5697,-0.5852,-0.6024,-0.619,-0.6258,-0.6306,-0.6296,-0.6294,-0.6318,-0.6332,-0.6303,-0.6255,-0.6255,-0.6255,-0.6255,-0.6255,-0.6255,-0.4224,-0.4359,-0.4451,-0.4649,-0.4766,-0.4918,-0.5003,-0.5122,-0.5242,-0.5436,-0.5565,-0.5675,-0.5834,-0.6013,-0.6159,-0.6206,-0.6262,-0.6239,-0.6299,-0.6309,-0.6317,-0.6325,-0.6299,-0.625,-0.625,-0.6275,-0.6275,-0.6275]},{"header":{"parameterUnit":"m.s-1","parameterCategory":1,"la1":30.2991,"la2":30.254,"lo1":-89.0895,"lo2":-89.0444,"dy":0.0017,"dx":0.0017,"nx":28,"ny":28,"refTime":"2024-10-03T09:00:00:Z","depth":0,"parameterNumber":3,"parameterNumberName":"V-component_of_WINDS"},"data":[0,0,0,0,0,0,0,0,0,0,0,0,0,0,0,0,0,0,0,0,0,0,0,0,0,0,0,0,0,0,0,0,0,0,0,0,0,0,0,0,0,0,0,0,0,0,0,0,0,0,0,0,0,0,0,0,0,0,0.9073,0.9074,0,0.9192,0.9193,0.9195,0.92,0.9199,0.9197,0.9196,0.9312,0.9316,0.932,0,0,0,0,0,0,0,0,0,0,0,0,0,0.8847,0.8851,0.9073,0.9074,0.9076,0.9192,0.9193,0.9195,0.92,0.9199,0.9197,0.9195,0.931,0.9315,0.9321,0,0,0,0,0,0,0,0,0,0,0,0,0,0.8953,0.8852,0.9073,0.9093,0.9096,0.9191,0.9193,0.9195,0.9201,0.9199,0.9196,0.9195,0.9309,0.9315,0.9321,0.9403,0,0,0.9341,0.9344,0,0,0,0,0,0,0,0,0.8947,0.8961,0.9088,0.9091,0.9095,0.9179,0.9156,0.9265,0.9201,0.9161,0.9196,0.9194,0.9269,0.9279,0.9305,0.9409,0.9414,0.9342,0.9346,0.9349,0.9351,0,0,0,0,0,0,0,0.894,0.8956,0.912,0.909,0.9094,0.9094,0.9107,0.9177,0.9225,0.9164,0.9165,0.9179,0.927,0.9299,0.9308,0.9415,0.9342,0.9348,0.9352,0.9354,0.9595,0.9597,0,0,0,0,0,0,0.8929,0.895,0.9116,0.9123,0.9015,0.91,0.9115,0.9154,0.9224,0.9233,0.9181,0.9179,0.9289,0.93,0.9312,0.9415,0.9349,0.9355,0.9359,0.9592,0.9595,0.9598,0,0,0,0,0,0,0.8924,0.8944,0.9111,0.9037,0.9058,0.9106,0.9151,0.9158,0.9186,0.9237,0.9245,0.9201,0.9288,0.9303,0.9382,0.9419,0.9358,0.9364,0.959,0.9593,0.9597,0.9619,0,0,0,0,0,0,0.8918,0.8942,0.8974,0.9038,0.9062,0.918,0.9153,0.9161,0.9198,0.9197,0.9258,0.9266,0.9287,0.9372,0.9388,0.9427,0.9369,0.9586,0.9591,0.9596,0.9615,0.9623,0.963,0,0,0,0,0,0.891,0.8974,0.8976,0.8996,0.9104,0.9182,0.9196,0.922,0.9201,0.9234,0.9267,0.9264,0.9412,0.938,0.9398,0.9439,0.9584,0.959,0.9595,0.9612,0.9622,0.963,0,0,0,0,0,0,0.8911,0.8982,0.8985,0.9073,0.9122,0.9183,0.9225,0.9229,0.9283,0.9279,0.9305,0.9319,0.9398,0.9426,0.9389,0.9524,0.9496,0.9505,0.9502,0.9512,0.9519,0.951,0.9374,0,0,0,0,0,0.8922,0.8981,0.9039,0.911,0.9135,0.9176,0.9211,0.9226,0.9276,0.9296,0.9335,0.9383,0.944,0.9477,0.9533,0.9619,0.9633,0.9657,0.9664,0.967,0.9678,0.9728,0.9739,0.9616,0.9616,0.9616,0,0,0.8943,0.899,0.9025,0.9112,0.9152,0.9212,0.9193,0.9256,0.9301,0.9305,0.9383,0.9413,0.9469,0.9553,0.9591,0.9579,0.9715,0.9677,0.9681,0.9686,0.9734,0.9746,0.9756,0.962,0.9619,0.9619,0,0,0.9015,0.9056,0.9121,0.9162,0.9224,0.9251,0.9266,0.9328,0.9349,0.9428,0.9434,0.9486,0.9584,0.9624,0.9657,0.9747,0.9747,0.9764,0.9802,0.985,0.986,0.9869,0.9902,0.9914,0.9772,0.9772,0.9772,0,0.9034,0.9126,0.9153,0.9218,0.9256,0.9266,0.9333,0.937,0.9446,0.9471,0.9457,0.9582,0.962,0.9714,0.9737,0.9763,0.9781,0.9757,0.9857,0.9866,0.9874,0.9906,0.9919,0.9773,0.9773,0.9773,0.9773,0,0.9147,0.9211,0.9256,0.9332,0.9376,0.944,0.9477,0.9517,0.9529,0.9557,0.9639,0.9685,0.9751,0.9774,0.9785,0.9871,0.9862,0.9852,0.9824,0.9887,0.9918,0.9931,0.9776,0.9775,0.9775,0.9774,0,0,0.9221,0.9314,0.933,0.9366,0.9436,0.9485,0.9551,0.9618,0.9653,0.9705,0.9761,0.9845,0.9837,0.9875,0.989,0.9933,1.0003,0.9918,0.9919,0.9933,1.0103,1.0111,1.0124,1.0004,1.0006,1.0008,1.0099,0,0.9301,0.942,0.9448,0.955,0.961,0.9622,0.9679,0.9728,0.9757,0.9811,0.9841,0.9902,0.9886,0.9909,0.9952,0.9986,1.0038,0.9979,1.0056,1.0058,1.0043,1.014,1.0148,1.0231,1.0111,1.0113,1.0114,0,0.941,0.9468,0.9577,0.9642,0.9668,0.972,0.9785,0.9837,0.9892,0.991,0.9954,0.9966,1.0034,1.0004,1.0099,1.0059,1.0091,1.0113,1.0117,1.0125,1.009,1.0152,1.0258,1.0271,1.0133,1.0131,1.013,0,0.9455,0.956,0.964,0.967,0.9747,0.9783,0.9816,0.987,0.991,0.9966,0.9993,1.0055,1.0089,1.0137,1.0166,1.0141,1.0259,1.023,1.0276,1.0275,1.03,1.0298,1.0413,1.032,1.032,1.0319,1.0319,0,0.9542,0.9608,0.9662,0.971,0.9786,0.9817,0.989,0.9923,0.9971,1.0027,1.0039,1.009,1.0124,1.018,1.0202,1.0278,1.0293,1.0309,1.0315,1.0309,1.0307,1.0331,1.0327,1.0323,1.0322,1.0321,1.0321,0,0.9604,0.9643,0.9731,0.9798,0.9816,0.9869,0.9926,0.9974,1.0004,1.0073,1.0091,1.0138,1.0205,1.0238,1.032,1.0335,1.0421,1.0422,1.0403,1.0406,1.045,1.0446,1.0585,1.0606,1.0497,1.0498,1.0499,0,0.9657,0.971,0.9784,0.9823,0.9858,0.9921,0.9963,0.9995,1.0038,1.0107,1.0146,1.0214,1.0271,1.0376,1.0416,1.048,1.0483,1.0528,1.0492,1.0486,1.0485,1.0482,1.0488,1.0534,1.0535,1.0536,1.0536,0,0.9749,0.9766,0.9827,0.9895,0.9945,1.0,1.0053,1.0084,1.0126,1.0173,1.0243,1.0287,1.0373,1.044,1.0507,1.0539,1.0545,1.0547,1.0562,1.0556,1.0544,1.0553,1.0422,1.0544,1.0543,1.0543,1.0542,1.0542,0.9809,0.9857,0.9918,0.9986,1.003,1.0081,1.013,1.0168,1.0228,1.0302,1.0317,1.0392,1.0447,1.0538,1.0574,1.0632,1.0622,1.0642,1.0647,1.0652,1.0655,1.0535,1.0644,1.0643,1.0643,1.0643,1.0643,0,0.9902,0.9943,1.0005,1.0082,1.0135,1.0139,1.0199,1.0243,1.0309,1.0362,1.0419,1.05,1.0566,1.0613,1.068,1.0717,1.0722,1.0734,1.0732,1.074,1.0659,1.0641,1.0729,1.0729,1.0729,1.0729,1.0729,1.0729,0.9957,1.004,1.0064,1.0169,1.0208,1.0284,1.0318,1.0365,1.0408,1.0499,1.0555,1.0586,1.0637,1.0708,1.0769,1.0781,1.0806,1.0818,1.083,1.0754,1.0745,1.0736,1.0719,1.0823,1.0823,1.0906,1.0907,1.0907]}]]